Weather Roundup
Issued by NWS

Home | Current Version | Previous Version | Text Only | Print | Product List | Glossary On
Versions: 1 2 3 4 5 6 7 8 9 10 11 12 13 14 15 16 17 18 19 20 21 22 23 24 25 26 27 28 29 30 31 32 33 34 35 36 37 38 39 40 41 42 43 44 45 46 47 48 49 50
458
NZUS93 KARX 232059
HRRWXR

CURRENT HOURLY OBSERVATIONS ACROSS
MUCH OF THE UPPER MISSISSIPPI VALLEY
NATIONAL WEATHER SERVICE LA CROSSE WI
400 PM CDT SAT SEP 23 2017


...SOUTHEAST MINNESOTA...


CITY           SKY/WX    TMP DP  RH WIND       PRES   REMARKS
ROCHESTER      MOSUNNY   89  67  47 S15G22    29.98F HX  92
ROCHESTER/MAYO FAIR      89  64  42 S7G17     29.97F HX  90
WINONA         MOSUNNY   91  63  38 CALM      29.96F HX  92
AUSTIN         MOSUNNY   88  64  45 S14       29.96F
ALBERT LEA     SUNNY     91  66  43 S9G16     29.95F HX  94
DODGE CENTER   MOSUNNY   90  64  43 S10       29.97F HX  91
PRESTON        MOSUNNY   88  62  42 S15       29.99F
OWATONNA       MOSUNNY   88  70  55 S12       29.95F HX  92
FARIBAULT      CLOUDY    88  68  51 SE13      29.95F HX  91
$$

...ELSEWHERE IN MINNESOTA...


CITY           SKY/WX    TMP DP  RH WIND       PRES   REMARKS
MINNEAPOLIS    PTSUNNY   89  70  53 S13       29.92F HX  94
INTNL FALLS    CLOUDY    57  54  89 W7        30.02S
DULUTH         PTSUNNY   80  71  74 SW8       29.96S
RED WING       MOSUNNY   90  63  40 S7        29.93F HX  90
REDWOOD FALLS  CLOUDY    67  59  75 N12G22    29.96R
MANKATO        PTSUNNY   87  68  52 S13       29.93F HX  90
WORTHINGTON    CLOUDY    79  72  79 CALM      29.92F
FAIRMONT       PTSUNNY   88  68  51 S18       29.92F HX  91
$$

...SOUTHWEST WISCONSIN...


CITY           SKY/WX    TMP DP  RH WIND       PRES   REMARKS
LA CROSSE      MOSUNNY   94  65  38 S12       29.96F HX  96
PRAIRIE DU CHI NOT AVBL
BOSCOBEL       SUNNY     93  63  36 S9        29.99F HX  94
LONE ROCK      NOT AVBL
PLATTEVILLE    SUNNY     91  63  38 S9G16     30.03F HX  92
FORT MC COY    SUNNY     90  65  43 SW8       30.00F HX  91
MAUSTON-NEW LI PTCLDY    91  67  46 SW3       30.00F HX  94
VIROQUA        FAIR      89  65  44 S9        30.03F HX  91
WIS DELLS      NOT AVBL
$$

...ELSEWHERE IN WISCONSIN...


CITY           SKY/WX    TMP DP  RH WIND       PRES   REMARKS
MILWAUKEE      MOSUNNY   87  67  51 SE14      30.04F HX  90
MADISON        MOSUNNY   91  62  37 S13       30.02F HX  91
GREEN BAY      SUNNY     90  66  45 S7        30.02F HX  92
EAU CLAIRE     NOT AVBL
BLACK RVR FLS  FAIR      92  59  32 S8G17     29.98F HX  91
MEDFORD        MOSUNNY   84  65  52 S12       30.02F
WAUSAU         LGT RAIN  86  65  49 SW10      30.01F
WIS RAPIDS     SUNNY     89  67  47 SW8       30.02F HX  92
MARSHFIELD     MOSUNNY   87  64  46 SW13      30.02F
RICE LAKE      SUNNY     87  67  51 S13       29.98F HX  90
$$

...NORTHEAST IOWA...


CITY           SKY/WX    TMP DP  RH WIND       PRES   REMARKS
WATERLOO       SUNNY     90  60  36 S16       29.96F
DUBUQUE        MOSUNNY   88  65  46 S9        30.03F HX  90
DECORAH        MOSUNNY   90  63  40 S8G16     29.98F HX  90
MASON CITY     MOSUNNY   90  63  40 S18G29    29.97F HX  91
CHARLES CITY   MOSUNNY   88  61  40 S12G18    29.98F
OELWEIN        MOSUNNY   91  63  38 S16       30.00S HX  92
$$

...ELSEWHERE IN IOWA...


CITY           SKY/WX    TMP DP  RH WIND       PRES   REMARKS
DES MOINES     MOSUNNY   91  63  39 S14       29.95F HX  92
IOWA CITY      MOSUNNY   94  63  35 S10       30.00F HX  95
FORT DODGE     MOSUNNY   89  65  44 S12G17    29.94F HX  91
MARSHALLTOWN   SUNNY     91  64  40 S13       29.96F HX  92
CEDAR RAPIDS   SUNNY     93  59  31 S13       29.99F HX  92
$$

...NORTHERN ILLINOIS...


CITY           SKY/WX    TMP DP  RH WIND       PRES   REMARKS
CHICAGO-OHARE  MOSUNNY   92  64  39 E13       30.03F HX  93
CHICAGO-MIDWAY MOSUNNY   92  66  42 E14       30.03F HX  94
MOLINE         PTSUNNY   92  64  39 S8        29.99F HX  93
ROCKFORD       PTSUNNY   88  62  41 S5        30.04F
PEORIA         MOSUNNY   93  62  35 SE10      30.02F HX  93
$$

NOTE: "FAIR" INDICATES FEW OR NO CLOUDS BELOW 12,000 FEET WITH NO
SIGNIFICANT WEATHER AND/OR OBSTRUCTIONS TO VISIBILITY. WIND
SPEEDS ARE IN MILES-PER-HOUR.




USA.gov is the U.S. government's official web portal to all federal, state and local government web resources and services.